sat.trackr.live / text

‹ back to catalog

ZHONGXING-12

NORAD 39017 · 2012-067A

PAYLOAD ACTIVE UNKNOWN

§ Identity

Operator
Country
PRC
Launch date
2012-11-27
Launch site
XICLF
Launch vehicle
Mass (kg)
RCS (m²)
63.10

Purposes: comms

External: N2YO · Heavens-Above · Gunter

§ Orbital elements

Epoch: 2026-05-25T02:26:52.768032Z

Period
1,436.10 min
Inclination
0.0479°
Eccentricity
0.0002969
Mean motion
1.00271360 rev/d
Perigee alt
35,774.2 km
Apogee alt
35,799.2 km
Semi-major
42,164.9 km
B*
0.0000e+0
RAAN
106.5859°
Arg perigee
311.4191°
Mean anomaly
308.8973°
Rev number
4,927

§ Raw data

ZHONGXING-121 39017U 12067A   26145.10199963 -.00000209  00000+0  00000+0 0  99922 39017   0.0479 106.5859 0002969 311.4191 308.8973  1.00271360 49272

JSON: /api/v1/satellites/39017 · /tle

For live sub-satellite position, see the globe view (requires WebGL).

§ Visibility from observer

Set your observer location to see the next 7 days of passes ≥ 10°. The values pass through the URL so the page stays shareable.

No JS? Fill the form by hand. The geolocation button needs JavaScript.